• In Romania
  • List of Countries
  • For 7 days
  • Water Temperature
  • Satellite Maps
  • Weather Map
  • Weather Widgets
  • user-avatar
    Login

    Hourly Weather Wiktoria

    Today, 28 April, Friday

    Time Temperature Precipitation Wind Pressure Humidity
    00:00 +6°C° 0 mm 0 mps 755 mmHg 96%
    01:00 +7°C° 0 mm 1 mps 755 mmHg 95%
    02:00 +7°C° 0 mm 1 mps 755 mmHg 96%
    03:00 +7°C° 0 mm 1 mps 756 mmHg 97%
    04:00 +7°C° 0 mm 1 mps 755 mmHg 98%
    05:00 +5°C° 0 mm 0 mps 756 mmHg 99%
    06:00 +5°C° 0 mm 0 mps 756 mmHg 99%
    07:00 +5°C° 0 mm 0 mps 756 mmHg 99%
    08:00 +8°C° 0 mm 0 mps 756 mmHg 89%
    09:00 +12°C° 0 mm 1 mps 756 mmHg 79%
    10:00 +15°C° 0 mm 1 mps 757 mmHg 71%
    11:00 +16°C° 0 mm 1 mps 756 mmHg 70%
    12:00 +16°C° 0 mm 1 mps 756 mmHg 69%
    13:00 +18°C° 0 mm 1 mps 755 mmHg 68%
    14:00 +18°C° 0 mm 1 mps 755 mmHg 71%
    15:00 +16°C° 0 mm 1 mps 755 mmHg 74%
    16:00 +16°C° 0 mm 1 mps 755 mmHg 77%
    17:00 +15°C° 0 mm 1 mps 755 mmHg 82%
    18:00 +15°C° 0 mm 1 mps 755 mmHg 86%
    19:00 +14°C° 0 mm 1 mps 755 mmHg 91%
    20:00 +14°C° 0 mm 1 mps 755 mmHg 92%
    21:00 +14°C° 0 mm 1 mps 755 mmHg 94%
    22:00 +14°C° 0 mm 1 mps 755 mmHg 95%
    23:00 +13°C° 0 mm 1 mps 755 mmHg 95%

    Tomorrow, 29 April, Saturday

    Time Temperature Precipitation Wind Pressure Humidity
    00:00 +13°C° 0 mm 1 mps 755 mmHg 96%
    01:00 +13°C° 0 mm 1 mps 755 mmHg 97%
    02:00 +12°C° 0 mm 1 mps 755 mmHg 97%
    03:00 +12°C° 0 mm 1 mps 755 mmHg 98%
    04:00 +12°C° 0 mm 1 mps 754 mmHg 98%
    05:00 +12°C° 0 mm 1 mps 754 mmHg 98%
    06:00 +12°C° 0 mm 1 mps 754 mmHg 98%
    07:00 +12°C° 0 mm 1 mps 755 mmHg 98%
    08:00 +13°C° 0 mm 1 mps 755 mmHg 95%
    09:00 +14°C° 0 mm 1 mps 755 mmHg 93%
    10:00 +15°C° 0 mm 1 mps 755 mmHg 90%
    11:00 +16°C° 0.1 mm 1 mps 755 mmHg 86%
    12:00 +18°C° 0.1 mm 1 mps 755 mmHg 81%
    13:00 +19°C° 0.1 mm 1 mps 755 mmHg 77%
    14:00 +19°C° 0 mm 1 mps 754 mmHg 75%
    15:00 +19°C° 0 mm 1 mps 754 mmHg 73%
    16:00 +19°C° 0 mm 1 mps 754 mmHg 71%
    17:00 +16°C° 0 mm 1 mps 754 mmHg 78%
    18:00 +15°C° 0 mm 1 mps 755 mmHg 86%
    19:00 +13°C° 0 mm 1 mps 755 mmHg 93%
    20:00 +13°C° 0 mm 1 mps 755 mmHg 94%
    21:00 +13°C° 0 mm 1 mps 755 mmHg 94%
    22:00 +12°C° 0 mm 1 mps 756 mmHg 94%
    23:00 +12°C° 0 mm 1 mps 755 mmHg 95%

    Day after tomorrow, 30 April, Sunday

    Time Temperature Precipitation Wind Pressure Humidity
    00:00 +11°C° 0 mm 1 mps 755 mmHg 96%
    01:00 +11°C° 0 mm 1 mps 755 mmHg 97%
    02:00 +10°C° 0 mm 1 mps 755 mmHg 97%
    03:00 +10°C° 0 mm 1 mps 755 mmHg 98%
    04:00 +10°C° 0 mm 1 mps 755 mmHg 98%
    05:00 +9°C° 0 mm 1 mps 755 mmHg 98%
    06:00 +9°C° 0 mm 1 mps 755 mmHg 99%
    07:00 +9°C° 0 mm 1 mps 755 mmHg 99%
    08:00 +10°C° 0 mm 0 mps 755 mmHg 88%
    09:00 +13°C° 0 mm 0 mps 755 mmHg 77%
    10:00 +15°C° 0 mm 0 mps 756 mmHg 66%
    11:00 +16°C° 0 mm 0 mps 755 mmHg 61%
    12:00 +19°C° 0 mm 1 mps 755 mmHg 56%
    13:00 +20°C° 0 mm 1 mps 754 mmHg 51%
    14:00 +20°C° 0 mm 1 mps 754 mmHg 53%
    15:00 +20°C° 0 mm 1 mps 754 mmHg 55%
    16:00 +19°C° 0 mm 1 mps 753 mmHg 57%
    17:00 +16°C° 0 mm 1 mps 753 mmHg 68%
    18:00 +14°C° 0 mm 1 mps 754 mmHg 78%
    19:00 +12°C° 0 mm 1 mps 754 mmHg 89%
    20:00 +11°C° 0 mm 1 mps 754 mmHg 92%
    21:00 +9°C° 0 mm 0 mps 754 mmHg 94%
    22:00 +8°C° 0 mm 0 mps 754 mmHg 97%
    23:00 +8°C° 0 mm 0 mps 753 mmHg 96%

    1 May, Monday

    Time Temperature Precipitation Wind Pressure Humidity
    00:00 +9°C° 0 mm 0 mps 753 mmHg 95%
    01:00 +9°C° 0 mm 0 mps 753 mmHg 94%
    02:00 +9°C° 0 mm 0 mps 753 mmHg 95%
    03:00 +10°C° 0 mm 1 mps 752 mmHg 95%
    04:00 +9°C° 0 mm 1 mps 752 mmHg 96%
    05:00 +9°C° 0 mm 1 mps 752 mmHg 96%
    06:00 +9°C° 0 mm 1 mps 752 mmHg 96%
    07:00 +9°C° 0 mm 1 mps 753 mmHg 96%
    08:00 +11°C° 0 mm 1 mps 753 mmHg 88%
    09:00 +13°C° 0 mm 1 mps 753 mmHg 80%
    10:00 +15°C° 0 mm 1 mps 753 mmHg 71%
    11:00 +15°C° 0 mm 1 mps 752 mmHg 70%
    12:00 +16°C° 0 mm 1 mps 752 mmHg 69%
    13:00 +18°C° 0 mm 1 mps 751 mmHg 68%
    14:00 +18°C° 0 mm 1 mps 751 mmHg 66%
    15:00 +19°C° 0 mm 1 mps 750 mmHg 64%
    16:00 +19°C° 0 mm 1 mps 750 mmHg 61%
    17:00 +16°C° 0 mm 1 mps 750 mmHg 70%
    18:00 +14°C° 0 mm 1 mps 750 mmHg 79%
    19:00 +12°C° 0 mm 1 mps 750 mmHg 88%
    20:00 +12°C° 0 mm 1 mps 750 mmHg 88%
    21:00 +12°C° 0 mm 1 mps 751 mmHg 88%
    22:00 +12°C° 0 mm 1 mps 751 mmHg 88%
    23:00 +12°C° 0 mm 1 mps 751 mmHg 88%

    2 May, Tuesday

    Time Temperature Precipitation Wind Pressure Humidity
    00:00 +12°C° 0 mm 1 mps 750 mmHg 88%
    01:00 +11°C° 0 mm 0 mps 750 mmHg 88%
    02:00 +12°C° 0.2 mm 1 mps 750 mmHg 89%
    03:00 +12°C° 0.2 mm 1 mps 750 mmHg 91%
    04:00 +12°C° 0.2 mm 1 mps 750 mmHg 92%
    05:00 +12°C° 0 mm 1 mps 751 mmHg 92%
    06:00 +12°C° 0 mm 1 mps 751 mmHg 93%
    07:00 +12°C° 0 mm 1 mps 752 mmHg 93%
    08:00 +12°C° 0 mm 2 mps 752 mmHg 87%
    09:00 +13°C° 0 mm 2 mps 753 mmHg 80%
    10:00 +13°C° 0 mm 2 mps 753 mmHg 74%
    11:00 +14°C° 0 mm 2 mps 753 mmHg 68%
    12:00 +14°C° 0 mm 3 mps 753 mmHg 63%
    13:00 +14°C° 0 mm 3 mps 753 mmHg 57%
    14:00 +14°C° 0 mm 3 mps 753 mmHg 56%
    15:00 +14°C° 0 mm 3 mps 753 mmHg 55%
    16:00 +14°C° 0 mm 2 mps 753 mmHg 53%
    17:00 +13°C° 0 mm 2 mps 753 mmHg 60%
    18:00 +12°C° 0 mm 2 mps 754 mmHg 66%
    19:00 +9°C° 0 mm 2 mps 755 mmHg 72%
    20:00 +9°C° 0 mm 2 mps 755 mmHg 75%
    21:00 +8°C° 0 mm 2 mps 756 mmHg 78%
    22:00 +8°C° 0 mm 2 mps 756 mmHg 81%
    23:00 +7°C° 0 mm 2 mps 756 mmHg 83%

    3 May, Wednesday

    Time Temperature Precipitation Wind Pressure Humidity
    00:00 +7°C° 0 mm 2 mps 756 mmHg 85%
    01:00 +7°C° 0 mm 2 mps 756 mmHg 87%
    02:00 +7°C° 0 mm 2 mps 756 mmHg 88%
    03:00 +6°C° 0 mm 2 mps 756 mmHg 89%
    04:00 +7°C° 0 mm 1 mps 756 mmHg 90%
    05:00 +7°C° 0 mm 1 mps 757 mmHg 91%
    06:00 +6°C° 0 mm 1 mps 757 mmHg 93%
    07:00 +6°C° 0 mm 1 mps 758 mmHg 94%
    08:00 +7°C° 0 mm 2 mps 758 mmHg 83%
    09:00 +9°C° 0 mm 2 mps 758 mmHg 72%
    10:00 +12°C° 0 mm 2 mps 759 mmHg 62%
    11:00 +12°C° 0 mm 3 mps 759 mmHg 59%
    12:00 +13°C° 0 mm 3 mps 758 mmHg 55%
    13:00 +14°C° 0 mm 3 mps 758 mmHg 52%
    14:00 +14°C° 0 mm 3 mps 758 mmHg 52%
    15:00 +15°C° 0 mm 2 mps 758 mmHg 52%
    16:00 +15°C° 0 mm 2 mps 758 mmHg 52%
    17:00 +13°C° 0 mm 2 mps 759 mmHg 60%
    18:00 +10°C° 0 mm 2 mps 759 mmHg 68%
    19:00 +9°C° 0 mm 2 mps 760 mmHg 76%
    20:00 +9°C° 0 mm 1 mps 760 mmHg 79%
    21:00 +9°C° 0 mm 1 mps 760 mmHg 82%
    22:00 +8°C° 0 mm 1 mps 761 mmHg 84%
    23:00 +8°C° 0 mm 1 mps 761 mmHg 87%
    Show more